SCP
-0 -0 -0 -0 0 -0 -0 -0 0 0 0 0 0 -0 0 0 0 0 0 0 0 0 0 0 0 0 0 0 0 0 0 0 0 0 0 0 0 0 0 0 0 0 0 0
-0 -0 -0 -0 0 -0 -0 -0 0 0 0 -0 -0 -0 0 0 0 0 0 0 0 0 0 0 0 0 0 0 0 0 0 0 0 0 0 0 0 0 0 0 0 0 0 0
-0 -0 -0 -0 0 -0 -0 -0 0 0 0 0 0 0 0 0 0 0 0 0 0 0 0 0 0 0 0 0 0 0 0 0 0 0 0 0 0 0 0 0 0 0 0 0
-0 -0 -0 -0 -0 -0 0 -0 0 0 0 0 0 0 0 0 0 0 0 0 0 0 0 0 0 0 0 0 -0 -0 0 0 0 0 0 0 0 0 0 0 0 0 0 0
-0 -0 -0 -0 -0 -0 0 0 0 0 0 0 0 0 0 0 0 0 0 0 0 0 0 0 0 0 0 0 0 0 0 0 0 0 0 0 0 0 0 0 0 0 0 0
-0 -0 -0 -0 -0 -0 0 0 0 -0 0 0 0 0 0 0 0 0 0 0 0 0 0 0 0 0 0 0 0 0 0 0 0 0 0 0 0 0 0 0 0 0 0 0
-0 -0 -0 -0 -0 -0 0 0 0 0 0 0 0 0 0 0 0 0 0 0 0 0 0 0 0 0 -0 0 0 0 0 0 0 0 0 0 0 0 0 0 0 0 0 0
-0 -0 -0 -0 -0 -0 0 0 0 0 0 0 0 0 0 0 0 -0 0 0 0 0 0 0 -0 -0 -0 0 0 0 0 0 0 0 0 0 0 0 0 0 0 0 0 0
-0 -0 -0 0 0 0 0 0 0 0 0 0 0 0 0 0 0 0 0 0 0 -0 -0 -0 0 0 0 0 0 0 0 0 0 0 0 0 0 0 0 0 0 0 0 0
-0 -0 0 0 -0 -0 0 -0 0 0 0 0 0 0 0 0 -0 -0 0 0 0 -0 -0 0 0 0 0 0 0 0 0 0 0 0 0 0 0 0 0 0 0 0 0 0
-0 0 -0 0 0 0 0 0 0 -0 0 0 0 0 0 0 0 0 -0 0 0 0 0 0 0 0 0 0 0 0 0 0 0 0 0 0 -0 0 0 0 0 0 0 0
0 0 0 0 0 0 0 0 -0 -0 0 0 0 0 0 0 -0 0 0 0 0 0 0 0 0 0 0 0 0 0 0 0 0 0 0 -0 -0 0 0 0 0 0 0 0
0 0 0 0 0 -0 0 0 0 -0 0 0 0 0 0 0 0 0 0 0 0 0 0 0 -0 -0 0 0 -0 0 0 0 0 0 -0 0 0 0 0 0 0 0 0 0
0 0 0 0 0 0 -0 0 0 -0 0 0 0 0 0 0 0 0 0 0 0 0 0 0 0 0 0 0 0 0 0 0 0 -0 -0 -0 -0 -0 -0 -0 -0 0 0 0
0 0 0 0 0 0 0 0 0 0 0 -0 0 0 0 0 0 0 0 0 0 0 0 0 0 0 0 -0 0 -0 0 -0 0 -0 -0 -0 -0 -0 -0 -0 -0 0 0 0
0 0 0 0 0 0 0 0 0 0 0 0 -0 0 0 0 0 0 0 0 0 0 0 0 0 0 0 0 0 -0 -0 -0 -0 -0 -0 -0 -0 -0 -0 -0 0 0 0 -0
0 0 0 0 -0 0 0 0 0 0 0 0 0 0 0 0 0 0 -0 0 0 0 0 0 0 0 0 0 0 -0 0 -0 -0 -0 -0 -0 -0 -0 0 0 0 0 0 0
0 0 0 0 -0 0 0 0 0 0 0 0 0 0 0 0 0 0 0 0 0 0 0 0 0 0 0 0 -0 0 -0 -0 -0 0 -0 0 0 0 0 0 0 0 0 0
-0 0 0 0 0 0 0 0 0 0 0 -0 -0 0 0 0 -0 0 0 0 0 0 0 0 0 0 0 0 0 0 0 0 0 0 0 0 0 0 0 0 0 0 0 -0
0 0 0 0 0 0 0 0 0 0 0 0 0 0 0 0 -0 0 0 0 0 0 0 0 0 0 0 0 0 0 0 0 0 0 0 0 -0 0 0 0 0 -0 -0 0
0 0 0 0 0 0 0 0 0 0 0 0 0 0 0 0 0 0 0 0 0 0 0 0 0 0 0 0 0 0 0 0 0 0 0 0 0 0 0 0 0 0 0 0
0 0 0 0 0 0 0 0 0 0 0 0 0 0 0 0 0 0 0 0 0 0 0 0 0 0 0 0 0 0 0 0 0 0 0 0 0 -0 0 0 0 0 0 0
0 0 0 0 0 0 0 0 0 0 0 0 0 0 0 0 0 0 0 0 0 0 0 0 0 0 0 0 0 0 0 0 0 0 0 0 0 -0 0 0 0 0 0 0
0 0 0 0 0 0 0 0 0 0 0 0 0 0 0 0 0 0 0 0 0 0 0 0 0 0 0 0 0 0 0 0 0 0 0 -0 -0 0 0 0 0 0 0 0
0 0 0 0 0 0 0 0 0 0 0 0 0 0 0 -0 0 0 0 0 0 0 0 0 0 0 0 0 0 0 0 0 0 0 0 -0 0 0 0 0 0 0 0 -0
0 0 0 0 0 0 0 0 0 0 0 0 0 0 0 0 0 0 0 0 0 0 0 0 -0 0 0 0 0 0 0 0 -0 0 0 0 0 0 -0 0 0 0 0 -0
0 0 0 0 0 0 0 0 0 0 0 0 0 0 0 0 0 0 0 0 0 0 0 0 0 0 0 0 0 0 0 0 0 0 0 0 0 0 0 -0 0 0 0 0
Wind_Speed_500mb
49 50 46 26 14 6 3 12 2 4 15 16 22 22 5 10 19 19 13 15 25 24 31 33 33 16 13 34 33 22 32 17 23 37 10 25 33 32 24 15 29 28 29 9
58 49 47 28 19 7 9 14 13 4 11 11 16 26 8 3 14 19 15 21 24 19 27 22 19 12 15 10 16 12 13 19 20 32 36 8 13 19 37 41 23 30 27 8
64 51 45 30 26 10 14 16 4 14 14 26 16 22 23 7 6 11 10 26 22 24 22 28 29 23 12 11 15 4 4 14 22 25 2 12 26 22 28 30 17 32 10 36
68 63 43 32 27 18 20 10 10 9 14 22 20 17 23 25 21 24 29 19 11 15 21 28 28 32 24 2 18 1 2 15 26 34 42 32 28 34 31 24 28 39 21 27
70 67 65 36 32 21 23 23 20 20 17 17 21 10 21 21 28 18 24 17 28 26 26 6 23 22 23 18 15 11 3 15 28 33 37 21 21 30 29 25 31 6 27 32
68 67 64 60 51 46 34 30 26 24 14 24 18 21 21 23 20 20 11 16 24 26 23 24 26 29 33 25 24 26 26 14 16 28 26 19 18 13 11 17 26 23 23 33
68 66 62 57 58 52 34 36 32 23 14 16 16 24 26 31 12 19 21 18 17 28 30 30 31 32 35 31 24 17 19 25 16 19 19 23 8 16 23 29 21 28 35 32
62 65 63 55 51 51 46 40 39 21 11 31 32 30 25 36 35 20 7 10 13 20 28 21 17 21 20 11 22 23 14 17 20 19 21 11 6 4 10 8 18 21 27 31
51 57 59 53 51 53 44 41 36 31 24 26 33 31 33 23 25 15 17 23 17 14 24 20 13 15 17 3 6 23 28 14 11 25 16 7 8 20 31 26 14 24 27 25
43 47 50 48 42 39 37 32 42 25 29 32 36 29 23 27 32 20 34 36 24 22 21 13 15 4 11 10 8 2 4 7 11 17 8 12 23 42 32 14 8 22 24 20
38 41 44 42 35 34 30 33 31 24 25 22 23 26 28 28 31 19 42 18 22 15 16 9 7 11 11 10 19 17 15 13 8 5 6 3 17 15 11 6 23 21 19 19
32 36 37 36 33 30 33 31 24 16 4 7 16 21 19 21 21 23 24 20 20 17 14 16 12 12 11 17 6 19 9 15 7 8 3 2 10 18 15 12 15 17 18 14
30 30 27 31 26 23 29 33 35 27 11 23 15 24 21 21 19 16 17 17 20 27 25 12 6 2 9 6 3 4 5 15 8 7 9 14 12 11 12 14 15 13 13 10
28 26 19 22 27 21 16 23 34 29 18 6 12 15 18 16 19 18 15 18 15 10 15 5 2 5 12 9 7 12 15 11 9 21 20 17 15 14 14 14 12 12 9 10
24 24 19 17 19 23 25 8 19 28 16 17 3 7 18 13 12 15 18 21 31 7 8 7 7 13 7 7 7 4 8 10 5 7 10 16 18 13 14 14 13 10 11 9
26 23 21 18 20 23 31 9 6 30 17 18 8 29 10 14 8 10 6 13 20 16 15 8 15 5 4 4 9 17 13 15 15 17 17 19 17 15 11 9 5 4 5 3
27 24 20 18 16 17 14 10 25 26 11 12 16 12 9 19 14 9 27 9 9 15 6 10 12 8 2 5 2 13 13 17 18 17 16 14 10 5 4 2 3 4 6 8
24 23 18 12 11 13 9 12 28 20 12 15 8 8 14 11 19 12 9 26 11 9 3 11 10 11 10 1 12 11 15 14 13 8 4 3 3 6 7 9 12 15 15 12
23 16 12 8 6 7 10 11 7 7 8 17 9 9 10 24 27 24 12 11 7 15 7 3 9 5 2 10 12 9 9 4 2 1 5 4 10 11 14 7 15 24 19 29
14 19 10 7 8 21 14 9 7 10 9 7 18 26 12 27 28 16 10 7 2 4 5 20 6 5 11 1 3 4 10 2 6 7 13 24 33 26 16 12 18 14 22 15
18 15 12 16 19 9 10 7 7 7 7 7 13 23 22 27 17 16 10 6 5 6 5 8 7 3 4 8 8 12 12 4 3 8 10 14 14 26 5 2 1 9 9 9
23 20 21 12 9 4 9 8 5 6 6 11 19 29 31 25 11 7 11 6 6 3 9 5 2 7 11 9 7 1 3 6 7 10 8 6 10 8 2 1 3 9 5 4
15 9 9 8 4 6 8 7 8 10 16 21 29 28 31 14 9 9 5 7 9 8 4 4 9 18 15 16 11 8 6 8 8 9 13 10 13 10 2 0 7 10 10 13
10 7 6 5 8 6 5 13 14 22 17 22 29 31 30 33 8 9 7 6 8 1 1 4 3 17 16 11 19 17 13 12 7 4 4 7 12 4 6 6 12 15 16 13
11 8 5 9 10 21 15 12 17 17 13 26 27 25 27 13 7 6 8 6 2 4 8 1 19 12 14 12 9 16 10 6 9 7 7 10 10 10 10 14 14 19 34 28
10 11 15 21 17 22 11 11 14 13 21 21 13 10 9 7 7 8 6 6 4 7 1 6 24 15 9 5 7 8 8 8 9 8 8 10 12 14 20 15 10 25 33 8
8 13 14 20 18 24 23 19 15 13 18 14 11 6 5 9 9 12 2 7 15 21 25 4 8 10 8 9 11 13 11 14 15 10 9 13 14 22 35 22 18 24 29 9
Wind_Direction_500mb
6 8 11 20 28 52 37 280 290 119 169 221 238 250 357 344 338 337 316 299 287 299 317 318 317 96 190 312 319 325 350 301 265 265 220 316 302 308 298 295 263 265 263 70
20 16 17 23 15 350 305 268 95 164 193 264 302 348 285 51 322 344 331 312 317 335 307 302 304 116 144 61 17 31 10 297 272 268 279 256 260 288 336 320 265 269 283 174
29 25 23 25 20 17 340 291 175 145 201 267 321 326 319 359 127 315 317 313 306 305 301 299 285 274 127 111 91 95 239 277 286 273 0 353 319 307 326 314 306 290 319 143
30 34 30 33 30 31 359 317 50 358 5 12 335 1 342 325 336 12 316 309 354 337 317 310 302 358 343 128 118 99 19 270 276 282 291 296 294 291 299 263 275 297 104 140
32 33 35 40 35 44 35 20 359 344 63 337 315 24 20 344 341 345 324 340 333 318 300 337 319 347 334 326 325 350 330 298 312 287 291 238 265 257 284 271 276 161 130 131
34 36 37 40 50 46 39 18 357 302 55 349 4 25 342 329 339 308 316 337 326 305 5 339 310 299 295 282 288 291 298 282 321 287 296 309 263 303 303 12 35 336 163 133
36 37 38 44 47 44 31 12 355 332 47 49 18 354 343 330 326 303 331 0 335 347 323 308 283 260 261 254 256 253 286 279 244 264 274 255 61 48 66 79 59 78 93 118
33 35 38 42 50 45 32 24 13 353 48 18 2 331 5 323 325 239 298 342 349 319 306 283 257 252 226 23 339 352 294 268 275 263 264 223 113 113 145 171 82 88 102 107
26 28 32 37 46 47 35 30 33 34 13 21 353 355 1 341 346 325 355 334 347 312 301 294 334 326 333 196 356 356 330 332 339 298 256 262 41 9 359 123 114 122 119 118
23 23 24 29 40 42 37 25 41 48 64 32 23 13 356 346 338 310 16 354 356 327 310 340 313 341 316 313 321 287 247 356 52 334 316 61 344 335 316 240 129 106 116 123
17 16 15 17 34 40 34 21 31 21 81 52 27 18 7 3 1 339 351 345 356 340 348 348 339 351 357 353 34 355 21 2 37 1 63 99 332 3 33 88 92 108 110 101
357 2 10 14 23 36 37 16 3 343 75 63 49 33 19 12 5 347 330 352 4 358 342 346 342 356 4 12 48 12 43 35 53 69 126 186 67 95 114 99 108 104 107 114
357 2 11 16 18 35 33 15 1 349 171 2 34 37 22 21 14 2 331 16 353 2 30 105 288 136 330 60 61 56 49 76 118 123 112 108 104 100 95 104 104 100 110 115
356 3 7 13 16 9 10 7 3 4 337 292 79 42 30 24 24 19 359 325 317 300 301 165 315 62 26 37 34 21 345 63 57 112 132 120 103 100 97 105 105 109 116 102
343 350 347 346 354 349 344 335 352 2 345 322 281 160 35 16 8 8 4 339 318 290 359 55 28 86 15 82 122 74 35 45 46 72 105 124 120 129 134 140 142 125 99 89
331 326 334 330 338 345 338 248 332 360 345 298 4 27 1 34 354 342 319 0 348 345 7 46 98 92 345 335 62 57 79 54 69 83 86 103 130 142 150 111 92 76 78 19
332 328 314 322 325 347 4 11 332 345 333 284 316 84 299 14 334 332 319 311 323 342 16 11 57 94 62 30 358 79 82 85 94 98 112 126 136 128 162 186 235 232 246 245
336 337 322 313 309 301 289 323 336 328 298 279 315 345 339 16 343 324 304 313 351 298 71 338 59 62 49 146 216 120 109 113 125 103 66 135 174 214 251 263 281 273 258 270
335 326 304 284 292 321 317 324 329 36 313 317 336 340 335 326 337 330 329 303 38 313 41 40 73 22 274 233 136 153 147 142 192 224 20 341 294 273 273 289 316 338 290 297
358 319 265 240 354 321 303 279 249 217 209 235 295 353 345 331 328 320 315 277 166 64 250 311 109 215 226 178 121 134 119 126 357 331 332 337 336 328 322 313 326 257 273 295
337 307 335 322 319 298 232 289 333 320 275 12 336 340 316 330 327 330 299 286 252 193 249 204 165 146 196 237 205 185 198 190 289 310 312 299 298 266 331 12 212 288 282 296
320 296 293 289 252 326 292 313 223 230 295 335 342 329 326 312 294 290 303 285 263 218 218 78 70 146 135 154 216 181 225 223 283 291 283 278 280 284 330 25 313 299 301 345
309 272 258 6 293 16 247 310 331 333 343 331 319 316 314 352 314 282 278 273 244 342 59 135 223 151 154 158 151 162 187 241 248 263 251 229 282 274 267 206 305 303 290 295
266 274 334 245 237 279 345 318 325 318 302 311 321 319 306 297 277 246 280 240 342 189 347 247 215 152 149 169 174 172 218 217 263 296 267 270 310 315 265 321 304 280 304 293
286 285 233 238 296 286 247 289 281 302 303 320 309 305 285 303 230 259 242 267 306 173 241 62 340 148 164 161 167 191 212 243 234 215 259 287 292 300 298 301 312 334 329 297
253 240 261 282 267 298 248 275 323 20 324 332 339 271 312 342 304 260 275 5 331 259 262 79 202 151 149 191 221 220 242 241 250 228 234 265 286 296 295 305 328 314 324 309
251 252 249 266 275 293 317 321 315 331 320 302 295 325 284 267 333 7 314 267 301 334 293 206 129 156 186 214 236 237 229 231 234 240 272 293 286 306 294 300 296 299 306 233
Wind_Speed_850mb
49 50 46 26 14 6 3 12 2 4 15 16 22 22 5 10 19 19 13 15 25 24 31 33 33 16 13 34 33 22 32 17 23 37 10 25 33 32 24 15 29 28 29 9
58 49 47 28 19 7 9 14 13 4 11 11 16 26 8 3 14 19 15 21 24 19 27 22 19 12 15 10 16 12 13 19 20 32 36 8 13 19 37 41 23 30 27 8
64 51 45 30 26 10 14 16 4 14 14 26 16 22 23 7 6 11 10 26 22 24 22 28 29 23 12 11 15 4 4 14 22 25 2 12 26 22 28 30 17 32 10 36
68 63 43 32 27 18 20 10 10 9 14 22 20 17 23 25 21 24 29 19 11 15 21 28 28 32 24 2 18 1 2 15 26 34 42 32 28 34 31 24 28 39 21 27
70 67 65 36 32 21 23 23 20 20 17 17 21 10 21 21 28 18 24 17 28 26 26 6 23 22 23 18 15 11 3 15 28 33 37 21 21 30 29 25 31 6 27 32
68 67 64 60 51 46 34 30 26 24 14 24 18 21 21 23 20 20 11 16 24 26 23 24 26 29 33 25 24 26 26 14 16 28 26 19 18 13 11 17 26 23 23 33
68 66 62 57 58 52 34 36 32 23 14 16 16 24 26 31 12 19 21 18 17 28 30 30 31 32 35 31 24 17 19 25 16 19 19 23 8 16 23 29 21 28 35 32
62 65 63 55 51 51 46 40 39 21 11 31 32 30 25 36 35 20 7 10 13 20 28 21 17 21 20 11 22 23 14 17 20 19 21 11 6 4 10 8 18 21 27 31
51 57 59 53 51 53 44 41 36 31 24 26 33 31 33 23 25 15 17 23 17 14 24 20 13 15 17 3 6 23 28 14 11 25 16 7 8 20 31 26 14 24 27 25
43 47 50 48 42 39 37 32 42 25 29 32 36 29 23 27 32 20 34 36 24 22 21 13 15 4 11 10 8 2 4 7 11 17 8 12 23 42 32 14 8 22 24 20
38 41 44 42 35 34 30 33 31 24 25 22 23 26 28 28 31 19 42 18 22 15 16 9 7 11 11 10 19 17 15 13 8 5 6 3 17 15 11 6 23 21 19 19
32 36 37 36 33 30 33 31 24 16 4 7 16 21 19 21 21 23 24 20 20 17 14 16 12 12 11 17 6 19 9 15 7 8 3 2 10 18 15 12 15 17 18 14
30 30 27 31 26 23 29 33 35 27 11 23 15 24 21 21 19 16 17 17 20 27 25 12 6 2 9 6 3 4 5 15 8 7 9 14 12 11 12 14 15 13 13 10
28 26 19 22 27 21 16 23 34 29 18 6 12 15 18 16 19 18 15 18 15 10 15 5 2 5 12 9 7 12 15 11 9 21 20 17 15 14 14 14 12 12 9 10
24 24 19 17 19 23 25 8 19 28 16 17 3 7 18 13 12 15 18 21 31 7 8 7 7 13 7 7 7 4 8 10 5 7 10 16 18 13 14 14 13 10 11 9
26 23 21 18 20 23 31 9 6 30 17 18 8 29 10 14 8 10 6 13 20 16 15 8 15 5 4 4 9 17 13 15 15 17 17 19 17 15 11 9 5 4 5 3
27 24 20 18 16 17 14 10 25 26 11 12 16 12 9 19 14 9 27 9 9 15 6 10 12 8 2 5 2 13 13 17 18 17 16 14 10 5 4 2 3 4 6 8
24 23 18 12 11 13 9 12 28 20 12 15 8 8 14 11 19 12 9 26 11 9 3 11 10 11 10 1 12 11 15 14 13 8 4 3 3 6 7 9 12 15 15 12
23 16 12 8 6 7 10 11 7 7 8 17 9 9 10 24 27 24 12 11 7 15 7 3 9 5 2 10 12 9 9 4 2 1 5 4 10 11 14 7 15 24 19 29
14 19 10 7 8 21 14 9 7 10 9 7 18 26 12 27 28 16 10 7 2 4 5 20 6 5 11 1 3 4 10 2 6 7 13 24 33 26 16 12 18 14 22 15
18 15 12 16 19 9 10 7 7 7 7 7 13 23 22 27 17 16 10 6 5 6 5 8 7 3 4 8 8 12 12 4 3 8 10 14 14 26 5 2 1 9 9 9
23 20 21 12 9 4 9 8 5 6 6 11 19 29 31 25 11 7 11 6 6 3 9 5 2 7 11 9 7 1 3 6 7 10 8 6 10 8 2 1 3 9 5 4
15 9 9 8 4 6 8 7 8 10 16 21 29 28 31 14 9 9 5 7 9 8 4 4 9 18 15 16 11 8 6 8 8 9 13 10 13 10 2 0 7 10 10 13
10 7 6 5 8 6 5 13 14 22 17 22 29 31 30 33 8 9 7 6 8 1 1 4 3 17 16 11 19 17 13 12 7 4 4 7 12 4 6 6 12 15 16 13
11 8 5 9 10 21 15 12 17 17 13 26 27 25 27 13 7 6 8 6 2 4 8 1 19 12 14 12 9 16 10 6 9 7 7 10 10 10 10 14 14 19 34 28
10 11 15 21 17 22 11 11 14 13 21 21 13 10 9 7 7 8 6 6 4 7 1 6 24 15 9 5 7 8 8 8 9 8 8 10 12 14 20 15 10 25 33 8
8 13 14 20 18 24 23 19 15 13 18 14 11 6 5 9 9 12 2 7 15 21 25 4 8 10 8 9 11 13 11 14 15 10 9 13 14 22 35 22 18 24 29 9
Wind_Direction_850mb
6 8 11 20 28 52 37 280 290 119 169 221 238 250 357 344 338 337 316 299 287 299 317 318 317 96 190 312 319 325 350 301 265 265 220 316 302 308 298 295 263 265 263 70
20 16 17 23 15 350 305 268 95 164 193 264 302 348 285 51 322 344 331 312 317 335 307 302 304 116 144 61 17 31 10 297 272 268 279 256 260 288 336 320 265 269 283 174
29 25 23 25 20 17 340 291 175 145 201 267 321 326 319 359 127 315 317 313 306 305 301 299 285 274 127 111 91 95 239 277 286 273 0 353 319 307 326 314 306 290 319 143
30 34 30 33 30 31 359 317 50 358 5 12 335 1 342 325 336 12 316 309 354 337 317 310 302 358 343 128 118 99 19 270 276 282 291 296 294 291 299 263 275 297 104 140
32 33 35 40 35 44 35 20 359 344 63 337 315 24 20 344 341 345 324 340 333 318 300 337 319 347 334 326 325 350 330 298 312 287 291 238 265 257 284 271 276 161 130 131
34 36 37 40 50 46 39 18 357 302 55 349 4 25 342 329 339 308 316 337 326 305 5 339 310 299 295 282 288 291 298 282 321 287 296 309 263 303 303 12 35 336 163 133
36 37 38 44 47 44 31 12 355 332 47 49 18 354 343 330 326 303 331 0 335 347 323 308 283 260 261 254 256 253 286 279 244 264 274 255 61 48 66 79 59 78 93 118
33 35 38 42 50 45 32 24 13 353 48 18 2 331 5 323 325 239 298 342 349 319 306 283 257 252 226 23 339 352 294 268 275 263 264 223 113 113 145 171 82 88 102 107
26 28 32 37 46 47 35 30 33 34 13 21 353 355 1 341 346 325 355 334 347 312 301 294 334 326 333 196 356 356 330 332 339 298 256 262 41 9 359 123 114 122 119 118
23 23 24 29 40 42 37 25 41 48 64 32 23 13 356 346 338 310 16 354 356 327 310 340 313 341 316 313 321 287 247 356 52 334 316 61 344 335 316 240 129 106 116 123
17 16 15 17 34 40 34 21 31 21 81 52 27 18 7 3 1 339 351 345 356 340 348 348 339 351 357 353 34 355 21 2 37 1 63 99 332 3 33 88 92 108 110 101
357 2 10 14 23 36 37 16 3 343 75 63 49 33 19 12 5 347 330 352 4 358 342 346 342 356 4 12 48 12 43 35 53 69 126 186 67 95 114 99 108 104 107 114
357 2 11 16 18 35 33 15 1 349 171 2 34 37 22 21 14 2 331 16 353 2 30 105 288 136 330 60 61 56 49 76 118 123 112 108 104 100 95 104 104 100 110 115
356 3 7 13 16 9 10 7 3 4 337 292 79 42 30 24 24 19 359 325 317 300 301 165 315 62 26 37 34 21 345 63 57 112 132 120 103 100 97 105 105 109 116 102
343 350 347 346 354 349 344 335 352 2 345 322 281 160 35 16 8 8 4 339 318 290 359 55 28 86 15 82 122 74 35 45 46 72 105 124 120 129 134 140 142 125 99 89
331 326 334 330 338 345 338 248 332 360 345 298 4 27 1 34 354 342 319 0 348 345 7 46 98 92 345 335 62 57 79 54 69 83 86 103 130 142 150 111 92 76 78 19
332 328 314 322 325 347 4 11 332 345 333 284 316 84 299 14 334 332 319 311 323 342 16 11 57 94 62 30 358 79 82 85 94 98 112 126 136 128 162 186 235 232 246 245
336 337 322 313 309 301 289 323 336 328 298 279 315 345 339 16 343 324 304 313 351 298 71 338 59 62 49 146 216 120 109 113 125 103 66 135 174 214 251 263 281 273 258 270
335 326 304 284 292 321 317 324 329 36 313 317 336 340 335 326 337 330 329 303 38 313 41 40 73 22 274 233 136 153 147 142 192 224 20 341 294 273 273 289 316 338 290 297
358 319 265 240 354 321 303 279 249 217 209 235 295 353 345 331 328 320 315 277 166 64 250 311 109 215 226 178 121 134 119 126 357 331 332 337 336 328 322 313 326 257 273 295
337 307 335 322 319 298 232 289 333 320 275 12 336 340 316 330 327 330 299 286 252 193 249 204 165 146 196 237 205 185 198 190 289 310 312 299 298 266 331 12 212 288 282 296
320 296 293 289 252 326 292 313 223 230 295 335 342 329 326 312 294 290 303 285 263 218 218 78 70 146 135 154 216 181 225 223 283 291 283 278 280 284 330 25 313 299 301 345
309 272 258 6 293 16 247 310 331 333 343 331 319 316 314 352 314 282 278 273 244 342 59 135 223 151 154 158 151 162 187 241 248 263 251 229 282 274 267 206 305 303 290 295
266 274 334 245 237 279 345 318 325 318 302 311 321 319 306 297 277 246 280 240 342 189 347 247 215 152 149 169 174 172 218 217 263 296 267 270 310 315 265 321 304 280 304 293
286 285 233 238 296 286 247 289 281 302 303 320 309 305 285 303 230 259 242 267 306 173 241 62 340 148 164 161 167 191 212 243 234 215 259 287 292 300 298 301 312 334 329 297
253 240 261 282 267 298 248 275 323 20 324 332 339 271 312 342 304 260 275 5 331 259 262 79 202 151 149 191 221 220 242 241 250 228 234 265 286 296 295 305 328 314 324 309
251 252 249 266 275 293 317 321 315 331 320 302 295 325 284 267 333 7 314 267 301 334 293 206 129 156 186 214 236 237 229 231 234 240 272 293 286 306 294 300 296 299 306 233